sat.trackr.live / text

‹ back to catalog

STARLINK-33984

NORAD 63830 · 2025-092AC

PAYLOAD ACTIVE UNKNOWN

§ Identity

Operator
Country
US
Launch date
2025-05-04
Launch site
AFETR
Launch vehicle
Mass (kg)
RCS (m²)

Purposes: comms

External: N2YO · Heavens-Above · Gunter

§ Orbital elements

Epoch: 2026-05-25T04:17:17.058624Z

Period
94.27 min
Inclination
43.0009°
Eccentricity
0.0001191
Mean motion
15.27592883 rev/d
Perigee alt
482.2 km
Apogee alt
483.8 km
Semi-major
6,861.1 km
B*
5.6901e-4
RAAN
100.4795°
Arg perigee
277.3433°
Mean anomaly
82.7283°
Rev number
6,031

§ Raw data

STARLINK-339841 63830U 25092AC  26145.17866966  .00015435  00000+0  56901-3 0  99962 63830  43.0009 100.4795 0001191 277.3433  82.7283 15.27592883 60315

JSON: /api/v1/satellites/63830 · /tle

For live sub-satellite position, see the globe view (requires WebGL).

§ Visibility from observer

Set your observer location to see the next 7 days of passes ≥ 10°. The values pass through the URL so the page stays shareable.

No JS? Fill the form by hand. The geolocation button needs JavaScript.